Wetbulb
62.56 62.40 62.33 62.06 61.53 61.50 61.57 61.71 61.60 61.33 60.71 60.30 59.79 59.84 59.38 58.96 58.57 58.47 58.34 58.09 57.58 57.78 58.40 58.53 59.22 60.28 52.44 46.77 50.33 64.94 72.18 72.25 64.21 58.77 56.96 59.78 60.09 61.91 58.68 61.21 62.79 60.44 62.85 63.62 63.92 62.94 61.47
61.06 61.00 61.14 61.42 61.55 61.34 61.43 61.40 61.53 61.40 61.08 60.67 59.87 59.58 58.70 58.47 58.28 58.14 57.77 57.48 56.94 57.06 58.44 58.62 59.60 59.96 50.31 44.94 59.63 64.47 60.95 57.94 53.88 54.93 56.89 61.78 60.68 63.95 61.20 61.80 62.21 63.68 62.95 62.93 63.01 62.87 61.87
61.42 61.20 60.86 60.65 61.06 61.01 60.93 61.03 61.09 60.95 60.62 60.46 59.95 59.41 59.02 58.67 58.10 57.94 57.50 57.07 56.61 56.97 58.57 58.77 60.20 58.17 48.04 50.12 60.15 59.01 54.96 51.88 55.59 57.74 58.19 62.18 60.50 56.19 62.67 60.74 64.74 63.65 59.96 60.91 62.09 62.75 59.98
61.13 60.93 60.73 60.70 61.10 60.94 60.44 60.61 60.39 60.03 60.04 59.92 59.45 58.85 58.78 58.20 57.99 57.63 57.28 56.60 56.69 57.74 58.67 59.08 58.68 52.54 42.32 54.03 57.66 55.86 51.69 50.93 52.43 56.83 58.21 59.15 57.50 53.05 61.71 62.31 62.95 59.91 56.85 55.08 61.28 61.19 61.69
60.61 60.47 60.29 60.64 60.96 60.81 59.97 59.60 59.75 59.65 59.66 59.32 58.47 58.37 58.15 58.06 57.66 57.34 56.48 56.56 57.76 58.36 59.05 60.03 51.45 48.68 46.10 59.05 53.79 55.52 56.05 54.55 54.85 56.17 57.14 61.75 53.04 48.00 49.42 48.69 51.95 54.85 51.57 54.14 57.39 62.28 62.12
60.45 60.44 60.40 59.94 60.28 60.29 59.83 59.50 59.41 59.57 59.25 58.98 58.68 58.34 57.91 57.31 57.04 56.41 55.92 56.23 59.63 58.27 58.37 60.20 57.83 47.14 51.48 50.42 49.44 54.80 56.67 57.33 53.90 51.68 50.24 49.51 46.28 44.70 44.44 45.99 45.78 49.85 50.62 53.80 53.75 59.31 60.06
60.34 60.37 60.22 59.65 59.60 59.69 59.52 59.56 59.42 59.24 59.08 58.58 58.31 57.76 57.47 57.33 56.71 55.82 52.61 50.08 47.43 45.52 50.15 47.72 46.70 49.41 51.60 54.51 53.69 51.18 56.05 55.71 51.79 48.47 42.84 44.45 43.31 41.93 44.70 46.24 50.73 49.85 52.27 54.85 56.96 60.47 57.96
60.37 60.29 60.15 59.85 59.45 59.30 59.28 59.14 58.96 58.98 58.79 58.41 57.78 57.51 57.23 56.65 55.91 55.43 48.97 49.11 48.73 48.68 45.43 48.63 50.85 52.14 54.07 53.66 47.74 50.77 53.11 48.48 46.66 42.78 43.60 42.42 39.33 44.44 46.63 46.85 45.50 44.64 44.21 47.53 57.13 59.60 56.98
60.10 59.86 59.52 59.34 59.34 59.04 58.84 58.79 58.52 58.46 58.19 57.77 57.62 57.25 56.56 55.82 55.25 50.16 47.25 49.32 51.30 49.03 42.44 46.43 49.10 49.23 48.73 51.32 48.13 49.90 51.24 48.05 45.11 42.35 41.05 39.72 42.60 46.92 46.75 44.83 44.12 40.06 43.80 51.88 53.67 57.63 57.90
59.59 59.52 59.22 59.18 59.06 58.84 58.56 58.43 58.28 58.31 57.80 57.45 57.12 56.92 55.79 54.64 49.37 48.78 48.33 51.37 51.04 48.75 39.58 44.09 45.04 49.30 48.01 48.45 45.72 52.57 51.82 49.81 44.92 43.80 43.20 41.45 45.23 45.49 43.80 44.05 43.57 36.63 46.48 55.64 55.64 52.77 47.90
59.41 59.30 59.12 58.96 58.94 58.56 58.26 58.06 57.98 58.05 57.46 57.14 56.92 56.45 55.43 54.85 49.51 48.87 49.09 50.39 49.20 47.46 33.48 46.94 45.67 49.08 45.64 46.64 45.46 47.84 51.48 48.58 44.31 43.33 42.51 41.50 41.34 41.88 42.20 44.15 44.84 43.82 50.32 53.47 55.46 50.69 47.98
59.11 58.93 58.96 58.96 58.65 58.41 57.85 57.56 57.50 57.42 57.26 57.01 56.62 55.97 55.41 51.50 48.18 50.59 51.13 48.66 47.52 39.35 34.53 44.06 44.72 41.58 42.13 42.73 44.99 47.23 48.05 48.72 47.84 44.31 41.73 43.12 44.70 43.30 43.71 45.67 46.49 49.87 48.87 46.20 46.61 46.25 42.25
58.51 58.38 58.12 58.40 58.27 57.87 57.51 57.30 57.12 57.16 56.88 56.51 55.71 54.75 54.05 54.77 47.88 50.82 49.73 47.03 38.15 34.33 43.55 39.80 39.51 40.38 38.55 40.18 42.22 44.74 44.67 42.55 40.05 36.86 34.33 40.27 41.15 43.56 45.62 41.75 45.33 46.36 43.92 36.97 37.71 40.03 40.51
58.20 57.35 57.07 57.00 57.25 57.18 56.90 56.94 56.86 56.62 56.44 56.01 54.51 53.57 52.89 54.15 52.27 49.48 47.63 43.50 33.43 41.12 40.93 44.98 40.78 38.93 39.98 41.91 41.19 42.19 41.74 40.59 40.66 38.60 34.78 35.41 35.81 42.13 45.41 43.66 42.87 42.23 44.19 37.58 34.19 34.18 40.13
57.67 57.04 56.59 56.49 56.38 56.41 56.13 56.43 56.50 56.26 55.85 55.01 53.32 50.69 49.69 51.52 53.80 49.83 45.86 35.98 36.27 41.66 45.92 44.44 40.15 37.73 37.22 40.24 40.97 40.08 40.04 39.98 41.40 40.79 37.16 34.01 36.65 44.31 45.80 45.20 46.35 41.03 39.61 41.51 36.33 31.96 34.88
56.70 56.62 56.16 55.72 55.84 55.69 56.15 56.19 56.38 56.22 55.43 54.44 50.56 49.07 50.45 52.64 52.81 47.41 42.46 37.61 39.51 45.15 45.99 43.94 38.34 39.09 37.38 37.90 38.54 38.43 38.54 41.66 41.71 42.44 40.70 38.25 34.65 39.24 44.42 44.41 42.58 42.02 44.07 38.98 35.89 31.60 30.26
55.41 54.94 55.76 55.41 55.13 54.94 55.27 55.67 55.91 55.53 54.68 53.49 50.30 47.32 51.29 50.99 47.42 44.31 37.16 36.53 42.03 46.63 47.79 43.44 40.26 39.22 38.10 38.91 38.89 35.93 38.38 41.19 42.25 40.21 40.53 36.98 36.92 38.01 40.13 38.67 39.80 39.56 37.30 35.94 36.53 34.82 33.05
54.36 54.34 54.21 54.03 54.07 54.60 54.45 54.96 55.24 54.37 53.44 53.10 49.75 46.77 51.09 49.75 43.66 36.54 38.08 41.14 45.71 44.67 47.86 46.49 44.04 43.51 40.83 40.84 37.85 36.88 38.76 41.18 43.02 42.36 40.12 39.47 34.95 34.17 38.22 40.59 42.25 39.01 37.34 36.61 35.65 33.21 32.06
53.70 53.82 53.74 53.57 53.57 53.53 53.62 54.26 54.66 54.16 53.19 53.08 47.39 46.90 53.11 49.27 39.51 37.87 39.78 45.09 46.88 46.53 45.87 44.05 43.76 43.50 41.74 39.64 37.01 40.08 39.76 43.34 44.37 42.91 42.26 41.61 34.75 32.27 35.43 37.77 40.46 40.02 40.04 34.08 33.84 33.26 31.99
53.08 53.41 53.43 53.25 53.10 53.53 53.31 53.98 54.50 54.79 54.32 52.56 47.98 44.59 45.93 46.12 43.19 40.41 41.18 43.75 45.00 50.18 48.32 46.95 45.08 43.75 40.26 38.55 38.37 39.18 40.96 44.54 44.90 45.06 54.41 46.74 33.56 35.10 33.31 35.63 38.99 38.71 40.92 40.04 35.47 32.48 33.41
52.81 52.65 52.77 52.69 52.67 52.67 52.83 53.04 54.17 55.09 54.94 52.77 47.55 45.44 44.68 43.15 43.46 43.18 42.27 44.01 44.33 45.07 48.45 47.64 42.90 43.55 39.87 37.23 37.06 38.62 40.53 40.96 44.19 53.33 41.28 40.31 36.63 35.14 34.56 40.10 41.09 41.40 42.34 40.89 37.57 36.40 36.47
52.52 52.36 52.37 52.48 52.35 52.35 52.63 52.71 53.66 54.01 54.28 52.51 47.19 45.12 47.03 44.55 44.29 41.92 42.56 42.80 44.92 45.94 45.63 45.20 43.04 45.95 43.53 38.17 40.66 39.66 40.33 39.02 40.73 41.46 39.45 36.83 35.06 35.71 34.43 40.37 41.17 40.58 43.04 48.46 47.04 44.25 49.33
52.02 52.06 52.19 52.27 52.31 52.33 52.79 52.73 52.54 52.79 53.45 53.03 50.35 53.26 50.10 45.44 42.50 42.90 43.51 45.02 46.10 45.50 47.19 47.86 46.36 43.72 42.59 43.89 43.77 42.30 42.47 40.62 40.08 41.31 38.93 37.55 36.24 34.04 31.83 38.25 39.08 35.96 41.99 48.38 51.55 51.91 51.18
52.40 53.00 53.42 53.44 53.23 53.02 52.79 52.77 52.35 52.55 52.83 54.58 54.49 52.53 50.34 45.88 44.07 45.14 47.10 47.07 46.54 46.35 44.02 47.85 47.37 42.41 45.52 46.03 45.02 42.51 40.00 38.78 41.30 38.84 38.59 36.42 34.85 33.06 32.10 36.24 29.37 37.78 52.31 52.57 51.35 52.51 53.34
54.21 54.44 54.60 54.80 54.68 54.70 53.92 53.23 53.28 52.75 52.60 53.53 55.34 53.59 51.15 46.04 47.79 47.09 47.56 45.92 46.08 46.27 45.48 47.26 49.39 49.28 44.65 43.92 39.71 36.50 37.09 36.19 39.12 38.81 40.23 39.50 37.75 34.44 33.94 31.68 39.05 49.02 52.40 52.21 49.03 50.95 56.03
54.64 54.84 55.22 55.33 55.12 55.16 55.04 54.90 54.15 53.18 52.08 52.15 54.14 55.67 51.21 46.48 46.19 49.73 47.86 46.98 43.63 42.74 43.79 45.93 49.68 49.65 43.06 40.17 41.67 36.27 33.62 35.60 35.39 36.96 38.67 38.85 39.94 38.54 34.83 34.43 31.65 41.09 51.92 54.31 54.62 47.15 57.03
54.74 54.72 54.96 55.35 55.31 55.12 55.06 55.39 55.19 54.35 52.15 51.05 53.25 55.75 51.77 46.12 49.04 49.70 47.22 46.69 45.96 44.04 42.53 44.19 46.40 46.57 45.64 38.47 36.47 36.50 37.53 40.17 37.74 35.73 37.48 34.70 35.05 35.61 35.72 35.46 38.35 44.36 52.05 53.25 43.49 43.59 57.02
54.23 54.28 54.58 54.58 54.94 54.98 55.06 55.15 55.39 55.49 54.27 51.54 51.50 55.67 52.35 47.86 49.02 51.47 51.45 49.35 48.87 47.23 44.76 44.88 44.30 42.39 41.92 38.27 38.14 36.77 34.62 38.46 38.75 39.33 36.83 36.07 34.50 34.15 35.02 36.08 35.08 50.35 51.82 45.60 48.02 54.72 57.46
53.91 53.91 54.09 54.03 54.38 54.68 55.08 55.35 55.31 55.37 55.22 53.64 48.85 55.19 55.77 50.10 49.19 51.94 50.54 52.68 52.53 51.94 48.39 46.45 43.46 43.15 41.92 38.61 38.82 40.11 37.54 37.53 34.75 34.32 40.25 38.37 39.77 37.70 38.77 38.16 44.20 49.96 50.47 53.72 54.45 55.28 54.59
MSLP
1019.15 1018.80 1018.47 1018.07 1017.71 1017.31 1016.83 1016.50 1016.22 1015.92 1015.56 1015.18 1014.73 1014.23 1013.75 1013.34 1013.03 1012.62 1012.24 1011.88 1011.50 1011.13 1010.90 1010.65 1010.40 1010.32 1010.17 1009.23 1007.35 1006.49 1006.61 1007.01 1007.48 1007.70 1007.54 1007.56 1007.81 1008.24 1008.61 1008.87 1009.08 1008.93 1008.16 1007.71 1007.22 1007.11 1007.55
1018.80 1018.54 1018.22 1017.89 1017.56 1017.26 1016.90 1016.49 1016.06 1015.69 1015.35 1014.97 1014.58 1014.24 1013.81 1013.29 1012.85 1012.43 1012.07 1011.68 1011.37 1011.06 1010.73 1010.56 1010.32 1010.21 1009.83 1008.27 1006.53 1006.51 1006.84 1007.34 1007.67 1007.77 1007.56 1007.54 1007.52 1007.63 1008.09 1008.53 1008.66 1008.15 1007.78 1007.46 1007.07 1006.80 1007.54
1019.18 1018.58 1018.15 1017.83 1017.48 1017.15 1016.72 1016.40 1016.10 1015.68 1015.24 1014.81 1014.38 1013.93 1013.45 1012.97 1012.53 1012.16 1011.78 1011.45 1011.11 1010.74 1010.49 1010.37 1010.22 1010.05 1009.17 1007.43 1006.49 1006.78 1007.12 1007.25 1007.42 1007.45 1007.49 1007.50 1007.31 1007.39 1007.67 1008.35 1008.04 1007.85 1007.90 1007.55 1007.39 1007.54 1008.37
1019.74 1019.24 1018.66 1018.08 1017.60 1017.19 1016.79 1016.40 1015.99 1015.57 1015.08 1014.68 1014.20 1013.74 1013.25 1012.76 1012.23 1011.73 1011.37 1010.99 1010.68 1010.40 1010.18 1010.14 1010.11 1009.86 1008.21 1006.64 1006.63 1006.93 1007.13 1007.28 1007.26 1007.33 1007.39 1007.28 1007.18 1007.40 1007.65 1007.80 1008.06 1008.06 1008.27 1008.18 1008.48 1007.99 1008.59
1019.86 1019.42 1018.98 1018.43 1017.80 1017.23 1016.77 1016.38 1015.95 1015.42 1014.93 1014.41 1013.95 1013.49 1013.00 1012.43 1011.99 1011.36 1010.92 1010.55 1009.92 1009.92 1010.02 1009.97 1009.99 1009.44 1007.55 1006.63 1006.71 1006.38 1006.57 1006.81 1006.98 1007.11 1007.01 1007.02 1007.14 1007.67 1007.76 1008.09 1008.62 1008.71 1008.76 1008.81 1008.76 1008.43 1008.51
1019.78 1019.38 1018.94 1018.52 1017.97 1017.39 1016.87 1016.35 1015.83 1015.36 1014.85 1014.31 1013.62 1013.06 1012.64 1012.12 1011.72 1011.12 1010.49 1010.15 1009.83 1009.87 1010.12 1010.02 1009.63 1009.17 1007.11 1006.45 1006.02 1006.18 1006.41 1006.51 1006.65 1006.90 1007.14 1007.32 1008.02 1008.43 1008.66 1008.64 1008.86 1008.81 1008.85 1009.01 1009.15 1008.97 1009.15
1019.73 1019.26 1018.82 1018.43 1017.98 1017.45 1016.93 1016.44 1015.97 1015.48 1014.90 1014.33 1013.77 1013.13 1012.43 1011.72 1011.34 1010.91 1010.34 1010.07 1010.37 1010.02 1009.57 1009.01 1008.71 1007.90 1006.96 1006.11 1005.74 1005.99 1006.11 1006.41 1006.60 1007.20 1007.92 1008.38 1008.88 1008.80 1008.70 1008.58 1008.40 1008.43 1008.56 1008.83 1008.81 1008.74 1009.30
1019.64 1019.20 1018.82 1018.40 1017.93 1017.44 1016.94 1016.45 1015.93 1015.40 1014.89 1014.29 1013.66 1013.02 1012.32 1011.60 1011.08 1010.57 1010.53 1010.17 1010.00 1009.91 1009.35 1008.20 1007.93 1007.44 1006.68 1006.24 1005.98 1005.89 1005.88 1006.55 1007.02 1007.79 1008.27 1009.05 1009.27 1008.62 1008.52 1008.47 1008.57 1008.66 1008.99 1009.20 1009.23 1009.27 1009.75
1019.46 1019.03 1018.67 1018.28 1017.82 1017.36 1016.84 1016.38 1015.92 1015.40 1014.81 1014.20 1013.56 1012.90 1012.21 1011.37 1010.78 1010.71 1010.51 1009.69 1009.39 1009.35 1009.54 1007.87 1007.26 1006.73 1006.07 1006.23 1006.03 1005.94 1006.03 1006.53 1007.29 1008.11 1008.71 1009.28 1009.01 1008.53 1008.42 1008.38 1008.49 1008.82 1009.12 1009.21 1009.52 1009.93 1010.06
1019.39 1019.01 1018.56 1018.10 1017.63 1017.21 1016.75 1016.27 1015.79 1015.27 1014.68 1014.05 1013.43 1012.76 1012.13 1011.30 1010.94 1011.24 1010.25 1009.48 1009.17 1009.17 1009.14 1007.72 1006.73 1005.73 1005.82 1005.83 1006.01 1005.71 1005.88 1006.45 1007.31 1008.11 1008.98 1009.08 1008.34 1008.26 1008.34 1008.36 1008.49 1008.77 1008.40 1009.13 1009.74 1010.47 1010.85
1019.42 1018.97 1018.54 1018.12 1017.65 1017.21 1016.75 1016.22 1015.68 1015.06 1014.42 1013.80 1013.22 1012.68 1012.18 1011.81 1011.70 1010.97 1009.89 1009.37 1009.09 1009.01 1008.83 1007.19 1006.25 1005.38 1005.65 1005.98 1006.11 1006.10 1005.94 1006.29 1007.33 1008.11 1008.93 1008.73 1008.22 1007.94 1008.01 1007.92 1008.07 1008.15 1008.30 1009.21 1009.97 1010.98 1011.26
1019.48 1019.03 1018.55 1018.04 1017.63 1017.25 1016.74 1016.08 1015.43 1014.73 1013.98 1013.24 1012.61 1012.21 1011.89 1011.94 1011.74 1009.93 1009.39 1009.13 1009.03 1009.40 1007.96 1006.65 1005.91 1005.78 1006.10 1006.16 1006.23 1006.28 1006.28 1006.49 1007.33 1008.26 1008.75 1008.59 1007.97 1007.65 1007.32 1007.19 1007.56 1007.93 1008.83 1010.03 1011.23 1011.94 1012.52
1019.39 1019.03 1018.60 1018.11 1017.61 1017.11 1016.64 1016.12 1015.47 1014.71 1013.75 1012.83 1011.95 1011.51 1011.64 1011.35 1010.52 1009.62 1009.36 1009.50 1010.15 1009.11 1007.64 1006.89 1006.36 1006.37 1006.52 1006.74 1006.64 1006.64 1007.04 1007.47 1008.14 1008.94 1009.44 1008.89 1008.14 1007.31 1006.91 1007.24 1007.51 1008.18 1009.60 1011.26 1012.70 1013.12 1012.99
1019.32 1018.99 1018.60 1018.18 1017.71 1017.22 1016.64 1015.98 1015.28 1014.56 1013.73 1012.64 1011.52 1010.79 1010.70 1010.41 1009.80 1009.66 1009.62 1010.20 1010.22 1008.62 1007.65 1006.87 1006.74 1006.88 1007.05 1007.05 1007.04 1007.24 1007.61 1008.28 1008.52 1009.07 1009.95 1009.48 1008.41 1007.37 1006.75 1006.88 1007.29 1008.34 1009.30 1010.88 1012.48 1013.69 1013.17
1019.36 1019.00 1018.57 1018.11 1017.68 1017.26 1016.72 1016.04 1015.26 1014.37 1013.37 1012.35 1010.98 1010.73 1010.73 1009.68 1009.63 1010.00 1010.24 1010.91 1009.68 1008.66 1007.71 1007.34 1007.12 1007.24 1007.37 1007.22 1007.40 1007.65 1008.06 1008.40 1008.41 1008.77 1009.44 1009.53 1008.67 1007.40 1006.80 1006.70 1007.07 1008.51 1009.48 1010.19 1012.04 1013.59 1013.51
1019.48 1019.11 1018.71 1018.29 1017.84 1017.33 1016.75 1016.07 1015.35 1014.51 1013.36 1012.52 1012.02 1011.58 1010.31 1009.50 1009.65 1009.78 1010.67 1010.80 1009.74 1008.58 1007.63 1007.30 1007.36 1007.28 1007.58 1007.62 1007.97 1008.11 1008.29 1007.62 1008.05 1008.21 1008.31 1009.21 1009.21 1007.98 1007.15 1007.02 1007.57 1007.94 1009.03 1010.58 1011.97 1013.51 1013.86
1019.47 1019.10 1018.71 1018.30 1017.88 1017.44 1016.93 1016.32 1015.58 1014.75 1013.57 1012.41 1012.41 1011.88 1010.32 1009.78 1009.87 1010.60 1011.34 1010.77 1009.50 1008.28 1007.68 1007.49 1007.40 1007.47 1007.60 1007.65 1007.85 1008.23 1008.13 1007.59 1007.47 1008.05 1008.48 1009.27 1009.70 1009.02 1008.23 1007.80 1007.97 1008.69 1009.33 1010.81 1011.96 1012.88 1013.42
1019.41 1019.06 1018.75 1018.40 1017.92 1017.46 1017.02 1016.53 1015.91 1015.20 1014.09 1013.09 1013.42 1012.86 1010.50 1010.11 1010.83 1011.84 1011.51 1010.33 1009.27 1008.27 1007.59 1007.36 1007.34 1007.44 1007.49 1007.47 1007.91 1008.13 1007.91 1007.31 1006.65 1007.25 1008.69 1009.09 1009.95 1010.01 1009.02 1008.33 1008.29 1008.40 1009.15 1010.11 1011.90 1013.30 1013.38
1019.37 1019.01 1018.62 1018.26 1017.90 1017.51 1017.08 1016.59 1016.06 1015.66 1015.38 1015.09 1014.55 1013.39 1010.74 1010.53 1011.47 1011.92 1011.28 1010.35 1009.32 1008.54 1007.87 1007.61 1007.37 1007.15 1007.16 1007.54 1007.88 1007.68 1007.42 1006.69 1006.74 1007.21 1007.54 1008.75 1009.95 1010.16 1009.72 1009.33 1008.68 1008.75 1009.25 1010.22 1011.06 1012.05 1012.78
1019.46 1018.99 1018.60 1018.23 1017.86 1017.51 1017.19 1016.84 1016.38 1015.90 1015.69 1015.64 1015.21 1014.31 1012.35 1011.71 1012.00 1011.73 1011.45 1010.58 1009.57 1008.53 1008.21 1007.86 1007.55 1007.35 1007.49 1007.61 1007.49 1007.45 1007.25 1006.78 1006.85 1007.18 1007.51 1007.98 1009.75 1009.70 1009.52 1009.00 1008.72 1009.02 1009.13 1009.82 1010.55 1011.85 1012.17
1019.17 1018.84 1018.48 1018.11 1017.80 1017.45 1017.11 1016.85 1016.50 1016.09 1015.72 1015.84 1015.53 1014.60 1013.88 1013.22 1012.94 1012.39 1011.79 1010.99 1010.11 1009.27 1008.66 1008.24 1008.05 1008.03 1007.99 1007.93 1007.69 1007.64 1007.22 1007.02 1007.12 1007.38 1007.93 1008.49 1009.62 1009.75 1009.18 1008.56 1008.40 1008.43 1008.76 1009.40 1010.16 1010.41 1011.20
1018.83 1018.48 1018.11 1017.72 1017.40 1017.15 1016.92 1016.69 1016.44 1016.10 1015.79 1015.77 1015.62 1015.34 1014.40 1013.54 1012.94 1012.64 1011.93 1011.24 1010.50 1010.03 1009.55 1009.10 1009.03 1008.84 1008.36 1008.14 1007.63 1007.47 1007.30 1007.31 1007.10 1007.71 1008.08 1008.96 1009.74 1009.94 1009.74 1009.05 1008.71 1008.48 1008.51 1008.99 1009.70 1010.37 1010.92
1018.54 1018.20 1017.88 1017.48 1017.03 1016.74 1016.56 1016.43 1016.41 1016.17 1015.96 1015.54 1014.99 1014.60 1014.62 1013.79 1013.22 1012.54 1011.79 1011.03 1010.84 1010.65 1010.03 1009.79 1009.98 1009.61 1008.69 1007.92 1007.48 1007.25 1007.15 1006.98 1007.07 1007.42 1008.30 1009.15 1009.93 1010.58 1010.37 1009.50 1009.23 1008.86 1008.22 1008.50 1009.41 1009.90 1010.69
1018.13 1017.63 1017.08 1016.72 1016.43 1016.23 1016.03 1015.98 1015.92 1015.91 1015.95 1015.60 1014.87 1014.63 1014.44 1013.41 1013.24 1012.77 1011.95 1011.37 1011.10 1011.07 1010.90 1010.11 1010.20 1009.99 1008.67 1008.00 1007.34 1007.29 1007.30 1007.25 1007.25 1007.58 1008.22 1009.15 1009.97 1010.46 1010.82 1010.25 1009.78 1008.41 1007.87 1007.96 1009.04 1009.91 1009.87
1017.57 1017.01 1016.39 1015.90 1015.58 1015.38 1015.32 1015.26 1015.30 1015.40 1015.42 1015.36 1014.85 1014.72 1014.13 1013.26 1012.66 1012.25 1011.99 1011.93 1011.69 1011.45 1011.42 1010.77 1009.79 1009.21 1008.87 1008.67 1008.44 1008.06 1008.09 1007.86 1007.64 1007.92 1008.20 1008.83 1009.37 1010.72 1010.92 1010.52 1009.49 1008.83 1008.22 1008.27 1008.89 1010.57 1010.20
1016.85 1016.27 1015.60 1015.01 1014.55 1014.39 1014.28 1014.36 1014.41 1014.54 1014.81 1015.09 1014.48 1014.41 1014.10 1013.61 1012.26 1011.65 1011.70 1011.73 1011.91 1011.89 1011.51 1010.63 1009.89 1009.24 1009.11 1009.07 1008.96 1009.47 1008.99 1008.49 1008.17 1008.15 1008.24 1008.74 1008.65 1009.52 1010.75 1010.34 1009.47 1008.05 1007.75 1007.35 1008.35 1010.39 1010.60
1016.33 1015.73 1015.09 1014.39 1013.75 1013.31 1013.18 1013.24 1013.42 1013.68 1014.06 1014.63 1014.01 1013.85 1013.75 1013.31 1012.18 1012.04 1011.55 1011.54 1011.53 1011.70 1011.84 1011.48 1010.91 1010.01 1009.63 1009.94 1010.11 1009.86 1009.35 1008.74 1008.52 1008.23 1008.41 1009.32 1009.57 1009.79 1010.17 1009.65 1008.87 1008.12 1007.66 1007.44 1009.04 1009.39 1009.82
1015.87 1015.25 1014.59 1013.88 1013.14 1012.54 1012.21 1012.16 1012.33 1012.63 1013.16 1013.87 1013.41 1013.28 1013.28 1012.75 1012.25 1012.09 1011.73 1011.55 1011.52 1011.44 1011.65 1011.65 1011.56 1011.30 1010.87 1010.79 1010.82 1010.06 1009.63 1008.75 1008.51 1008.39 1008.26 1008.69 1009.49 1009.89 1009.82 1009.55 1009.01 1008.13 1008.36 1008.49 1008.50 1008.75 1009.75
1015.54 1014.91 1014.16 1013.31 1012.44 1011.75 1011.31 1011.19 1011.33 1011.70 1012.19 1012.93 1013.21 1012.60 1012.92 1013.01 1012.48 1012.13 1011.76 1011.45 1011.21 1011.24 1011.23 1011.76 1011.96 1011.86 1011.40 1011.35 1011.04 1010.69 1009.95 1009.30 1008.80 1008.60 1007.90 1008.23 1007.80 1008.75 1009.31 1009.11 1008.79 1008.74 1008.99 1008.51 1008.44 1008.82 1010.43
Wind_Speed
14 13 13 14 12 12 15 13 13 12 12 13 16 16 17 18 17 18 18 17 17 15 13 11 10 8 2 1 3 5 11 9 5 4 4 5 4 4 2 1 4 1 3 2 7 5 8
22 20 17 15 14 13 15 15 15 15 14 13 15 15 17 18 18 18 17 17 16 14 12 9 8 5 1 3 2 7 10 5 4 3 4 4 5 6 4 4 2 5 2 6 6 9 9
19 20 20 19 16 15 16 16 15 16 16 15 14 15 15 17 19 18 18 17 16 14 11 8 6 3 1 3 1 6 7 5 6 4 4 2 1 2 5 4 3 3 4 3 11 7 7
15 16 17 18 17 15 15 16 16 17 17 15 15 15 16 19 20 20 19 18 16 12 8 5 1 1 3 1 5 5 3 1 3 4 2 3 3 2 2 5 2 2 4 5 4 2 2
15 14 14 16 17 16 17 16 15 16 17 17 20 19 19 18 19 22 20 18 14 5 4 3 0 1 0 3 2 4 5 3 4 2 4 3 2 3 4 5 4 5 3 2 1 5 2
15 14 14 15 16 15 15 15 15 16 16 17 18 19 21 21 21 21 20 12 4 7 2 3 3 2 2 1 3 4 4 1 2 2 3 6 6 4 3 4 5 5 4 3 3 3 4
15 14 15 15 15 14 13 14 15 16 16 16 17 21 22 21 24 20 8 3 5 3 2 3 2 2 3 5 1 2 4 4 2 8 3 4 6 4 0 2 4 6 4 3 6 5 4
15 15 14 14 14 13 13 13 15 15 16 17 21 18 23 24 23 11 1 6 4 2 6 2 4 5 5 2 2 2 4 4 3 3 1 7 2 4 2 2 3 4 3 3 4 5 3
15 15 15 14 14 14 14 14 14 15 16 19 17 19 22 25 21 1 2 3 3 3 3 7 4 4 3 7 3 6 5 3 4 3 3 6 4 5 2 1 2 1 3 4 5 3 4
15 15 16 16 16 16 16 16 15 17 18 18 22 18 21 27 2 4 2 2 6 5 5 3 3 4 3 3 1 4 5 6 2 8 7 4 4 3 3 3 6 2 7 7 7 8 5
15 16 16 16 16 16 16 16 17 18 19 22 19 17 15 8 4 1 2 7 2 4 3 3 2 2 2 6 1 1 2 5 6 5 7 7 2 3 3 6 8 8 5 9 7 5 4
14 16 17 17 16 15 16 18 19 20 21 24 22 17 12 1 0 7 6 6 4 7 2 2 4 3 4 2 1 2 3 5 3 5 2 6 2 3 7 4 8 4 5 8 6 4 1
14 15 16 17 17 18 18 19 19 21 23 24 25 20 4 1 3 4 5 5 6 4 3 1 3 3 2 3 2 3 5 4 5 4 2 5 4 4 4 2 2 6 7 3 3 2 6
15 18 17 18 17 18 19 20 21 22 25 26 27 16 5 4 3 5 4 6 2 3 4 1 2 2 7 6 4 3 5 3 3 4 3 4 6 6 3 8 8 5 9 8 6 5 5
15 18 19 19 19 19 21 21 21 23 26 26 21 2 1 4 6 2 7 3 7 5 1 2 2 3 3 3 3 3 6 7 7 9 8 5 6 4 5 2 7 4 3 5 9 3 3
16 16 18 18 18 19 19 21 21 22 26 26 4 4 4 2 5 5 6 5 4 3 3 3 4 3 6 4 6 6 6 5 6 11 4 6 1 2 5 3 4 3 5 4 3 5 4
17 18 16 16 18 19 21 20 20 20 26 22 4 5 4 2 1 6 4 7 5 6 2 1 3 2 5 5 8 6 6 5 6 3 5 6 4 7 3 1 7 1 1 7 6 4 7
18 18 18 18 18 16 19 18 16 17 23 7 3 4 3 2 4 1 3 5 3 3 3 4 3 5 7 5 6 5 9 8 5 11 10 7 6 5 10 2 3 2 5 5 7 6 2
18 18 18 19 19 19 19 17 14 14 12 4 2 4 4 4 2 2 4 4 3 2 3 1 4 5 3 5 3 7 6 5 7 8 12 10 2 2 8 7 4 5 1 4 5 4 7
18 18 18 18 18 17 18 16 15 11 10 3 2 4 5 5 1 4 1 4 4 3 3 2 4 1 1 4 4 5 5 2 5 5 6 9 4 9 9 8 5 4 3 4 6 5 4
19 19 19 18 18 17 16 15 14 12 8 2 0 4 3 3 2 2 0 2 2 3 2 4 2 3 2 2 2 5 4 2 0 7 4 6 7 4 2 5 5 6 4 7 6 5 7
21 21 21 20 19 18 17 15 13 12 9 0 1 1 3 2 1 1 3 3 2 2 1 2 2 7 6 5 8 6 7 4 7 3 5 1 4 3 3 4 6 5 5 7 3 4 5
21 22 21 21 19 18 16 15 13 11 5 2 2 2 1 3 1 3 5 5 4 1 3 3 4 4 6 7 4 5 8 2 2 9 8 7 8 4 5 4 2 4 8 5 4 3 8
21 21 20 19 18 17 16 14 13 11 5 2 2 1 2 4 4 4 3 2 4 5 3 7 2 3 4 7 5 3 4 4 4 3 4 7 7 3 4 4 5 6 4 5 9 1 5
21 22 21 21 21 19 17 14 12 11 9 3 2 2 3 4 6 6 6 4 3 3 5 6 8 7 3 5 3 2 5 2 3 5 1 2 6 4 7 5 2 1 5 8 5 1 4
21 22 22 22 21 20 19 18 14 11 10 3 4 2 2 2 6 9 5 5 3 3 5 5 5 5 0 2 3 1 5 5 4 3 5 4 4 6 4 6 9 7 5 7 9 4 9
20 20 20 20 19 19 19 18 17 14 11 4 3 7 2 3 4 2 3 5 5 3 2 4 6 5 3 2 2 5 7 3 4 6 6 3 4 6 3 2 6 4 3 4 6 8 18
19 20 20 20 19 18 17 18 18 17 14 6 3 7 4 2 3 2 3 2 1 2 4 3 4 2 2 2 4 5 4 7 7 6 7 8 6 3 3 3 5 3 2 7 5 2 14
18 20 20 21 21 20 18 16 16 16 15 12 4 4 5 4 2 2 4 5 2 1 4 1 2 2 4 1 1 2 1 1 4 4 1 5 7 7 4 4 2 3 5 2 4 14 6
Wind_Direction
1 357 351 350 348 341 338 339 337 334 347 347 348 343 341 337 334 329 329 328 327 324 320 317 314 318 304 98 246 96 130 129 112 136 189 164 137 126 201 163 94 62 251 244 279 234 122
358 359 357 351 346 343 339 337 337 336 334 339 343 342 341 334 334 330 328 326 323 316 313 308 304 310 307 117 24 134 125 119 118 179 198 172 185 204 137 151 174 200 283 317 342 111 136
350 348 349 350 345 342 336 337 340 340 336 332 339 339 335 333 332 330 327 324 317 307 303 295 299 275 46 156 43 121 129 172 169 181 174 216 275 191 143 127 235 192 109 43 25 56 84
347 343 339 337 334 333 339 338 341 336 333 333 338 338 334 335 331 328 325 321 307 293 286 270 227 272 216 93 126 132 171 141 207 224 233 237 210 179 197 131 78 92 31 60 340 75 45
346 343 339 337 335 333 339 341 335 331 334 336 341 339 337 331 332 328 325 318 303 259 196 189 12 23 179 118 164 199 166 164 164 181 261 265 88 123 43 96 67 13 149 121 326 11 70
344 340 342 343 339 336 335 337 334 335 334 337 335 335 336 332 332 330 321 314 86 117 174 199 260 42 326 220 222 152 194 187 112 101 37 43 51 63 46 87 187 176 114 112 186 234 68
343 340 343 344 342 335 332 331 332 332 333 337 333 335 334 328 331 330 334 71 17 359 95 198 240 250 280 279 266 162 155 118 70 51 114 8 71 224 37 152 115 117 83 170 205 200 107
342 341 340 336 338 337 336 333 335 332 334 334 339 333 332 329 330 326 155 85 117 211 326 237 246 280 258 253 123 109 124 99 88 143 90 27 217 231 82 95 18 83 151 206 7 142 132
344 343 343 341 342 343 339 337 334 335 336 338 333 333 333 331 324 9 342 172 39 125 115 300 204 210 205 139 185 201 116 132 123 118 111 141 224 97 133 13 26 7 181 185 165 175 332
343 343 343 345 345 344 342 341 335 336 339 336 337 335 336 329 58 317 278 26 316 179 65 279 283 279 124 135 316 184 170 137 102 171 145 215 273 177 165 208 143 255 193 179 149 132 214
344 343 343 344 344 343 340 338 336 334 336 337 333 333 334 338 294 209 308 328 297 60 58 169 214 356 29 133 161 185 212 55 163 155 110 244 204 179 175 208 168 225 152 175 164 147 104
343 343 344 342 342 342 338 339 336 334 333 334 330 328 329 131 161 248 319 324 52 45 229 162 139 150 105 33 14 84 100 61 126 119 6 237 272 197 209 184 188 141 84 56 56 87 13
343 343 345 344 343 343 341 339 336 334 333 331 326 321 287 233 225 318 314 53 46 135 332 199 217 147 137 179 238 158 152 165 159 105 335 323 249 264 175 187 124 85 73 17 10 18 209
344 344 344 346 346 343 340 338 337 336 335 331 324 322 190 222 286 341 56 54 183 205 215 334 94 93 170 164 233 144 117 178 207 99 121 156 317 189 183 183 188 185 155 153 187 184 219
342 342 342 343 344 344 345 342 340 337 336 335 321 338 166 267 211 344 73 90 210 202 297 9 65 143 232 230 181 137 186 197 205 164 168 146 275 287 222 172 130 187 161 171 103 12 78
340 341 340 340 339 341 341 344 342 340 336 338 338 345 305 20 160 69 78 234 235 223 342 46 204 165 189 201 162 157 188 214 210 188 162 199 329 260 302 112 26 148 158 91 5 135 206
338 338 339 339 338 340 340 343 340 341 336 329 24 12 306 36 42 50 163 229 255 245 40 196 206 224 200 192 176 189 207 266 200 139 121 135 116 282 353 176 181 92 81 51 111 122 159
339 339 337 336 337 338 339 341 340 343 338 33 14 348 303 32 54 30 177 203 247 258 287 258 222 213 201 177 177 206 211 223 169 150 163 196 144 196 221 312 272 167 183 141 130 228 247
336 335 336 337 337 338 338 338 339 347 13 330 6 269 318 90 185 261 278 283 263 268 259 230 247 193 161 204 186 193 203 249 180 157 165 180 221 67 347 356 9 101 39 93 104 77 194
332 332 332 331 332 333 335 333 328 342 356 360 8 334 317 45 57 148 161 260 257 248 245 294 272 105 191 240 246 222 222 251 181 167 76 102 130 158 186 200 154 165 198 163 127 124 193
329 328 326 326 325 326 327 328 326 330 347 45 66 244 190 293 329 15 2 301 238 271 1 346 13 42 296 257 221 218 249 246 169 161 99 129 178 176 210 182 158 178 179 155 188 198 159
327 325 323 322 321 319 320 320 320 323 332 290 234 327 340 259 250 213 173 237 245 312 242 286 65 323 285 232 203 236 177 199 203 198 143 95 180 156 172 207 204 202 219 145 109 123 73
322 319 316 314 312 311 308 308 306 308 314 266 268 236 189 268 295 140 212 187 138 120 291 51 13 324 281 261 265 243 230 218 228 171 172 139 135 115 225 198 197 303 216 156 130 120 141
314 307 304 301 299 297 298 296 292 286 252 298 287 281 237 256 191 211 270 200 173 159 218 293 302 220 257 319 287 214 28 166 152 85 133 134 109 104 164 107 210 239 295 143 112 136 209
307 303 299 295 292 287 280 276 274 267 269 257 236 256 226 248 234 244 269 263 299 283 226 229 252 220 303 325 325 7 339 1 101 36 213 209 131 111 142 182 257 206 181 152 105 328 183
311 309 306 299 288 281 275 265 257 244 254 253 235 230 229 291 231 223 217 191 212 248 307 251 295 313 103 120 157 349 198 214 225 117 99 40 89 116 144 155 198 223 196 121 115 185 223
315 316 316 312 306 289 275 263 251 236 223 206 261 192 216 235 232 219 186 208 172 145 211 299 329 339 27 139 149 172 228 208 214 167 158 24 359 143 146 166 272 226 143 108 137 232 187
322 321 318 315 312 303 284 266 250 236 215 182 257 202 219 221 271 238 271 185 116 157 151 276 347 338 354 156 167 207 172 208 196 203 179 159 148 173 97 137 277 121 66 160 195 103 159
327 325 322 319 318 307 290 268 247 234 211 188 237 198 200 238 301 318 275 255 226 228 153 203 197 225 237 89 268 293 166 120 147 215 267 204 176 164 157 217 337 334 286 343 176 142 135